Flag for Germany Weather past 2 weeks in Aschersleben, Saxony-Anhalt, Germany

Now
54 °F

Scattered clouds.


Feels Like: 53 °F
Forecast: 43 / 53 °F
Wind: 3 mph from Southeast

Location: Magdeburg

Current Time: Oct 24, 2014 at 6:41:23 PM

Latest Report: Oct 24, 2014 at 6:00 PM


Visibility: 11 mi

Pressure: 30.15 "Hg

Humidity: 75%

Dew point: 46 °F

Location of AscherslebenLocation

Historic Weather in Aschersleben — Graph

°F

Aschersleben temperature yesterday

Maximum temperature yesterday: 56 °F (at 3:00 PM)
Minimum temperature yesterday: 45 °F (at 10:00 PM)
Average temperature yesterday: 51 °F

Past Weeks' High & Low Weather Summary

 TemperatureHumidityPressure
High74 °F (Oct 19, 3:00 PM)98% (Oct 11, 7:00 AM)30.25 "Hg (Oct 11, 7:00 AM)
Low39 °F (Oct 24, 6:00 AM)54% (Oct 14, 4:00 PM)29.47 "Hg (Oct 21, 7:00 PM)
Average56 °F86%29.90 "Hg
* Reported Oct 9 6:00 PM — Oct 24 6:00 PM, Aschersleben, Weather by CustomWeather, © 2014

Note: Actual official high and low records may vary slightly from our data, if they occured in-between our weather recording intervals... More about our weather records

Advertising

Aschersleben weather history for previous 24 hours

 ConditionsComfort  
Time TempWeatherWind HumidityBarometerVisibility
6:00 PM
Oct 24
54 °FScattered clouds.3 mph75%30.15 "Hg11 mi
4:00 PM57 °FPartly sunny.3 mph64%30.17 "Hg22 mi
3:00 PM58 °FPartly sunny.5 mph61%30.18 "Hg22 mi
2:00 PM58 °FPassing clouds.3 mph65%30.20 "Hg12 mi
1:00 PM57 °FPassing clouds.3 mph68%30.22 "Hg9 mi
12:00 PM54 °FPassing clouds.3 mph79%30.24 "Hg7 mi
10:00 AM47 °FPassing clouds.2 mph91%30.24 "Hg6 mi
9:00 AM42 °FPassing clouds.1 mph97%30.24 "Hg5 mi
8:00 AM40 °FFog.1 mph97%30.22 "Hg4 mi
7:00 AM40 °FFog.1 mph97%30.22 "Hg4 mi
6:00 AM39 °FFog.1 mph97%30.22 "Hg4 mi
5:00 AM40 °FFog.1 mph97%30.22 "Hg2 mi
4:00 AM40 °FFog.1 mph97%30.23 "Hg3 mi
3:00 AM42 °FFog.1 mph98%30.24 "Hg4 mi
2:00 AM41 °FFog.1 mph97%30.24 "Hg3 mi
1:00 AM43 °FPassing clouds.1 mph97%30.24 "Hg5 mi
12:00 AM43 °FFog.1 mph97%30.25 "Hg3 mi
10:00 PM
Oct 23
45 °FClear.1 mph95%30.24 "Hg5 mi
9:00 PM46 °FPassing clouds.1 mph95%30.23 "Hg6 mi
8:00 PM47 °FPassing clouds.1 mph93%30.22 "Hg6 mi
7:00 PM49 °FPassing clouds.1 mph90%30.22 "Hg9 mi
6:00 PM52 °FPartly sunny.1 mph85%30.21 "Hg11 mi
Weather by CustomWeather, © 2014

See weather overviewHow to use our weather pages